Location: Ceske Budejovice
(48.9830°N, 14.4670°E)
Time: 20:32:30
(UTC+02:00)

ISS - Pass Details

Date: 30 March 2019
Orbit: 408 x 410 km, 51.6° (Epoch: 26 April)

Event Time Altitude Azimuth Distance (km) Brightness Sun altitude
Rises 20:49:54 0° 288° (WNW) 2,338 1.3 -22.1°
Reaches altitude 10° 20:52:00 10° 290° (WNW) 1,475 0.0 -22.4°
Enters shadow 20:54:32 48° 305° (NW) 541 -2.9 -22.8°
